Rawlins, WY

1:20 AM MDT on August 18, 2017 (GMT -0600)
Rawlins Municipal

Weather History for KRWL - August, 2013

Change the Weather History Date:

Monday, August 12, 2013

  Actual Average Record
Temperature  
Mean Temperature 66 °F 66 °F  
Max Temperature 83 °F 83 °F 94 °F (2003)
Min Temperature 49 °F 50 °F 38 °F (2016)
Degree Days  
Heating Degree Days 0 1  
Month to date heating degree days 1 12  
Since 1 June heating degree days 102 237  
Since 1 July heating degree days 1 47  
Cooling Degree Days 1 3  
Month to date cooling degree days 51 36  
Year to date cooling degree days 251 153  
Since 1 June cooling degree days 250 153  
Growing Degree Days 14 (Base 50)    
Moisture  
Dew Point 40 °F    
Average Humidity 50    
Maximum Humidity 83    
Minimum Humidity 17    
Precipitation  
Precipitation 0.04 in 0.02 in 0.59 in (1989)
Month to date precipitation 0.06 0.32  
Year to date precipitation 3.28 6.11  
Sea Level Pressure  
Sea Level Pressure 30.08 in    
Wind  
Wind Speed 6 mph (NE)    
Max Wind Speed 29 mph    
Max Gust Speed 35 mph    
Visibility 10 miles    
Events Rain , Thunderstorm    
T = Trace of Precipitation, MM = Missing Value Source: NWS Daily Summary

Daily Weather History Graph

Daily Weather History Graph

Search for Another Location

Airport or City:

Trip Planner

Search our weather history database for the weather conditions in past years. The results will help you decide how hot, cold, wet, or windy it might be!

Date:

Astronomy

Aug. 12, 2013 Rise Set
Actual Time 6:14 AM MDT 8:12 PM MDT
Civil Twilight 5:43 AM MDT 8:42 PM MDT
Nautical Twilight 5:06 AM MDT 9:19 PM MDT
Astronomical Twilight 4:26 AM MDT 9:59 PM MDT
Moon 12:14 PM MDT (8/12) 11:00 PM MDT (8/12)
Length of Visible Light 14h 58m
Length of Day
13h 58m
Waxing Crescent, 32% of the Moon is Illuminated
Aug 12
Waxing Crescent
Aug 14
First Quarter
Aug 20
Full
Aug 28
Last Quarter
Sep 5
New

Hourly Weather History & Observations

Time (MDT) Temp. Dew Point Humidity Pressure Visibility Wind Dir Wind Speed Gust Speed Precip Events Conditions
12:53 AM 54.0 °F 39.0 °F 57% 30.04 in 10.0 mi North 6.9 mph - N/A   Clear
1:53 AM 55.9 °F 39.9 °F 55% 30.04 in 10.0 mi NE 8.1 mph - N/A   Clear
2:53 AM 52.0 °F 37.9 °F 59% 30.03 in 10.0 mi Variable 4.6 mph - N/A   Clear
3:53 AM 48.9 °F 37.0 °F 64% 30.03 in 10.0 mi North 5.8 mph - N/A   Clear
4:53 AM 51.1 °F 39.9 °F 66% 30.03 in 10.0 mi SW 3.5 mph - N/A   Clear
5:53 AM 53.1 °F 42.1 °F 66% 30.03 in 10.0 mi NNE 3.5 mph - N/A   Clear
6:53 AM 54.0 °F 42.1 °F 64% 30.05 in 10.0 mi NW 4.6 mph - N/A   Clear
7:53 AM 57.0 °F 42.1 °F 57% 30.07 in 10.0 mi Calm Calm - N/A   Clear
8:53 AM 64.0 °F 42.1 °F 45% 30.05 in 10.0 mi Calm Calm - N/A   Partly Cloudy
9:53 AM 66.9 °F 41.0 °F 39% 30.05 in 10.0 mi SE 8.1 mph - N/A   Clear
10:53 AM 70.0 °F 39.9 °F 33% 30.05 in 10.0 mi Variable 5.8 mph - N/A   Clear
11:53 AM 77.0 °F 37.0 °F 24% 30.03 in 10.0 mi North 3.5 mph - N/A   Mostly Cloudy
12:53 PM 77.0 °F 32.0 °F 19% 30.01 in 10.0 mi Variable 5.8 mph - N/A   Clear
1:53 PM 78.1 °F 30.9 °F 18% 29.99 in 10.0 mi Variable 5.8 mph - N/A   Mostly Cloudy
2:19 PM 80.6 °F 30.2 °F 16% 30.27 in 10.0 mi East 5.8 mph 16.1 mph N/A Thunderstorm Thunderstorm
2:35 PM 80.6 °F 28.4 °F 15% 30.26 in 10.0 mi SE 9.2 mph - N/A Thunderstorm Partly Cloudy
2:53 PM 78.1 °F 33.1 °F 19% 30.01 in 10.0 mi ENE 12.7 mph 16.1 mph N/A Thunderstorm Partly Cloudy
3:36 PM 73.4 °F 35.6 °F 25% 30.28 in 10.0 mi ENE 10.4 mph 25.3 mph N/A   Mostly Cloudy
3:53 PM 73.0 °F 37.0 °F 27% 30.04 in 10.0 mi ENE 17.3 mph - N/A   Overcast
4:53 PM 70.0 °F 39.0 °F 32% 30.04 in 10.0 mi NE 15.0 mph - 0.00 in   Partly Cloudy
5:53 PM 61.0 °F 48.0 °F 62% 30.13 in 5.0 mi WSW 16.1 mph 26.5 mph 0.03 in Rain Light Rain
6:05 PM 60.8 °F 48.2 °F 63% 30.34 in 7.0 mi SW 10.4 mph - 0.01 in Rain Light Rain
6:53 PM 61.0 °F 48.0 °F 62% 30.12 in 10.0 mi West 3.5 mph - 0.01 in   Scattered Clouds
7:53 PM 59.0 °F 50.0 °F 72% 30.10 in 10.0 mi Calm Calm - 0.00 in Rain Light Rain
8:53 PM 61.0 °F 46.0 °F 58% 30.06 in 10.0 mi ENE 3.5 mph - 0.00 in   Overcast
9:53 PM 57.0 °F 50.0 °F 77% 30.09 in 10.0 mi ENE 5.8 mph - N/A   Mostly Cloudy
10:53 PM 55.9 °F 46.0 °F 69% 30.05 in 10.0 mi SW 8.1 mph - N/A   Clear
11:53 PM 52.0 °F 46.0 °F 80% 30.05 in 10.0 mi NE 6.9 mph - N/A   Scattered Clouds